TimePDT,TemperatureF,Dew PointF,Humidity,Sea Level PressureIn,VisibilityMPH,Wind Direction,Wind SpeedMPH,Gust SpeedMPH,PrecipitationIn,Events,Conditions,WindDirDegrees,DateUTC
12:53 AM,55.9,52.0,87,29.92,10.0,WNW,6.9,-,N/A,,Clear,290,2012-09-10 07:53:00
1:53 AM,54.0,51.1,90,29.92,10.0,WNW,3.5,-,N/A,,Clear,300,2012-09-10 08:53:00
2:53 AM,53.1,50.0,89,29.91,10.0,West,3.5,-,N/A,,Clear,260,2012-09-10 09:53:00
3:53 AM,53.1,48.9,86,29.91,10.0,Calm,Calm,-,N/A,,Clear,0,2012-09-10 10:53:00
4:53 AM,52.0,48.9,89,29.90,10.0,Calm,Calm,-,N/A,,Clear,0,2012-09-10 11:53:00
5:53 AM,52.0,48.9,89,29.89,10.0,Calm,Calm,-,N/A,,Clear,0,2012-09-10 12:53:00
6:53 AM,48.9,45.0,86,29.91,10.0,NE,3.5,-,N/A,,Clear,50,2012-09-10 13:53:00
7:53 AM,52.0,48.9,89,29.92,9.0,Calm,Calm,-,N/A,,Clear,0,2012-09-10 14:53:00
8:53 AM,57.0,50.0,77,29.93,10.0,Calm,Calm,-,N/A,,Clear,0,2012-09-10 15:53:00
9:53 AM,60.1,50.0,69,29.92,10.0,Calm,Calm,-,N/A,,Clear,0,2012-09-10 16:53:00
10:53 AM,68.0,50.0,52,29.92,10.0,Calm,Calm,-,N/A,,Clear,0,2012-09-10 17:53:00
12:53 PM,81.0,46.9,30,29.88,10.0,Variable,3.5,-,N/A,,Clear,0,2012-09-10 19:53:00
1:53 PM,82.9,46.0,27,29.86,10.0,SW,4.6,-,N/A,,Clear,220,2012-09-10 20:53:00
2:53 PM,87.1,41.0,20,29.83,10.0,SW,3.5,-,N/A,,Clear,230,2012-09-10 21:53:00
3:53 PM,90.0,42.1,19,29.81,10.0,WSW,4.6,-,N/A,,Clear,240,2012-09-10 22:53:00
4:53 PM,86.0,48.9,28,29.80,10.0,West,13.8,-,N/A,,Clear,280,2012-09-10 23:53:00
5:53 PM,84.0,46.0,26,29.79,10.0,West,11.5,-,N/A,,Clear,280,2012-09-11 00:53:00
6:53 PM,78.1,46.0,32,29.80,10.0,WNW,13.8,-,N/A,,Clear,290,2012-09-11 01:53:00
7:53 PM,73.0,46.0,38,29.81,10.0,West,10.4,-,N/A,,Clear,280,2012-09-11 02:53:00
8:53 PM,71.1,46.0,41,29.83,10.0,Calm,Calm,-,N/A,,Clear,0,2012-09-11 03:53:00
9:53 PM,69.1,45.0,42,29.83,10.0,Calm,Calm,-,N/A,,Clear,0,2012-09-11 04:53:00
10:53 PM,66.0,44.1,45,29.83,10.0,West,3.5,-,N/A,,Clear,280,2012-09-11 05:53:00
11:53 PM,63.0,44.1,50,29.82,10.0,Calm,Calm,-,N/A,,Clear,0,2012-09-11 06:53:00